Regional Weather Roundup
Issued by NWS

Home | Current Version | Previous Version | Graphics & Text | Print | Product List | Glossary On
Versions: 1 2 3 4 5 6 7 8 9 10 11 12 13 14 15 16 17 18 19 20 21 22 23 24 25 26 27 28 29 30 31 32 33 34 35 36 37 38 39 40 41 42 43 44 45 46 47 48 49 50
000
ASUS43 KMKX 260200
RWRWI

WISCONSIN REGIONAL WEATHER ROUNDUP
NATIONAL WEATHER SERVICE MILWAUKEE/SULLIVAN WI
900 PM CDT FRI JUL 25 2014

NOTE: "FAIR" INDICATES FEW OR NO CLOUDS BELOW 12,000 FEET WITH NO
SIGNIFICANT WEATHER AND/OR OBSTRUCTIONS TO VISIBILITY.

WIZ001-002-006>008-014>016-023>028-260300-
NORTHWEST WISCONSIN

CITY           SKY/WX    TMP DP  RH WIND       PRES   REMARKS
SUPERIOR ARPT  CLOUDY    64  61  91 CALM      29.76S
ASHLAND        CLOUDY    69  64  84 S7        29.78F
HAYWARD        CLOUDY    67  66  97 SE3       29.80F
SIREN          CLOUDY    71  67  88 S7        29.78S
RICE LAKE      CLOUDY    69  66  89 SE7       29.82F
LADYSMITH      CLOUDY    69  65  86 SE3       29.84F
EAU CLAIRE     CLOUDY    73  66  78 S10       29.80S
MENOMONIE      CLOUDY    73  67  82 SE6       29.80S
NEW RICHMOND   CLOUDY    72  69  90 SE5       29.79S
OSCEOLA        CLOUDY    73  71  94 SE9       29.79F
$$

WIZ003>005-009-010-017-018-260300-
NORTH CENTRAL WISCONSIN

CITY           SKY/WX    TMP DP  RH WIND       PRES   REMARKS
WOODRUFF       CLOUDY    66  62  88 SW5       29.85F
RHINELANDER    CLOUDY    64  62  93 SW6       29.87S
EAGLE RIVER    CLOUDY    64  61  90 SW3       29.85S
LAND O LAKES   CLOUDY    65  62  90 SW7       29.85F
PHILLIPS       CLOUDY    65  64  96 S5        29.83F
TOMAHAWK       CLOUDY    64  61  89 CALM      29.86F
MEDFORD        CLOUDY    66  63  90 SE6       29.86F
MERRILL        CLOUDY    65  63  91 CALM      29.86F
$$

WIZ029-030-035-036-043>047-260300-
CENTRAL WISCONSIN

CITY           SKY/WX    TMP DP  RH WIND       PRES   REMARKS
WAUSAU         CLOUDY    67  62  84 S3        29.85S
MOSINEE        MOCLDY    64  64 100 S5        29.88S
MARSHFIELD     PTCLDY    66  62  87 S8        29.86S
STEVENS POINT  CLOUDY    66  61  82 S5        29.88S
WAUPACA        CLOUDY    71  62  75 CALM      29.88S
WAUTOMA        NOT AVBL
WISC RAPIDS    CLOUDY    69  62  78 S3        29.88F
CAMP DOUGLAS   NOT AVBL
$$

WIZ011>013-019>022-031-037>040-048>050-260300-
NORTHEAST WISCONSIN

CITY           SKY/WX    TMP DP  RH WIND       PRES   REMARKS
ANTIGO         CLOUDY    64  61  93 S7        29.87F
STURGEON BAY   CLOUDY    64  57  77 S6        29.87F
GREEN BAY      MOCLDY    68  61  78 SW6       29.87F
MANITOWOC      NOT AVBL
APPLETON       CLOUDY    68  59  73 SW6       29.89S
CLINTONVILLE   CLOUDY    68  59  73 S3        29.87S
OSHKOSH        CLOUDY    70  62  76 SW6       29.89R
$$

WIZ032>034-041-042-053>061-260300-
SOUTHWEST WISCONSIN

CITY           SKY/WX    TMP DP  RH WIND       PRES   REMARKS
LA CROSSE      CLOUDY    73  64  73 SE12      29.82S
SPARTA         CLOUDY    70  62  76 SE7       29.85F
VIROQUA        FAIR      66  63  89 SE7       29.87F
BOSCOBEL       CLOUDY    71  63  75 CALM      29.86F
PRAIRIE DU CHI CLOUDY    70  63  78 E7        29.84S
PLATTEVILLE    CLOUDY    67  64  87 SE8       29.90R
$$

WIZ056-057-062-063-064-067-068-260300-
SOUTH CENTRAL WISCONSIN

CITY           SKY/WX    TMP DP  RH WIND       PRES   REMARKS
BARABOO/DELLS  CLOUDY    68  60  76 S5        29.89F
LONE ROCK      CLOUDY    72  63  73 E7        29.88F
WATERTOWN      CLOUDY    67  61  80 S6        29.90R
MADISON        CLOUDY    70  61  73 S8        29.91R
MIDDLETON      CLOUDY    69  60  73 S7        29.91R
MONROE         CLOUDY    68  61  77 S9        29.91S
JANESVILLE     CLOUDY    72  59  64 S9        29.91R
$$

WIZ051-052-058>065-066-070>072-260300-
SOUTHEAST WISCONSIN

CITY           SKY/WX    TMP DP  RH WIND       PRES   REMARKS
MILWAUKEE      MOCLDY    70  59  68 SW8       29.91R
WAUKESHA       CLOUDY    66  59  77 S5        29.93R
MILWAUKEE/TIMM CLOUDY    70  57  64 SW8       29.91S
RACINE         CLOUDY    69  60  73 SW7       29.93R
BURLINGTON     CLOUDY    66  60  81 SW6       29.92S
KENOSHA        CLOUDY    68  60  75 SW3       29.92R
FOND DU LAC    CLOUDY    69  61  75 SW7       29.90S
SHEBOYGAN      CLOUDY    67  58  72 S5        29.89S
WEST BEND      CLOUDY    68  59  73 CALM      29.90S
JUNEAU         MOCLDY    66  60  81 SW5       29.91S
$$

LSZ147-162-260300-
LAKE SUPERIOR

STATION/POSITION TIME  TEMP    WIND        PRES    WAVE
                       AIR SEA DIR/SP/G            HT/PER
                 (UTC) (F)     (DEG/KT/KT) (MB)    (FT/S)
W MID LAKE BUOY  0050   54 50  130/  4/  4 1008.4F   0
PORT WING        0140   71     170/  4/  6 1007.8F
SAXON HARBOR     0100          200/  6/ 11 1008.5F
$$

LMZ867-665-643>646-260300-
LAKE MICHIGAN

STATION/POSITION TIME  TEMP    WIND        PRES    WAVE
                       AIR SEA DIR/SP/G            HT/PER
                 (UTC) (F)     (DEG/KT/KT) (MB)    (FT/S)
N MID LAKE BUOY  0050   59 55  200/ 12/ 14 1010.6F   3/ 5
NORTHPORT PIER   0100   65     160/  6/ 12 1010.8F
KEWAUNEE LAKESHO 0100   54     170/  8/  9 1012.5S
SHEBOYGAN LAKESH 0100   64     180/ 14/ 14 1012.3R
PORT WASHINGTON  0100   62     180/  5/  6 1012.9S
ATWATER BUOY     0100   62     180/  8     1013.5F
MILWAUKEE LAKESH 0100   69     210/  9/ 13   N/A
S MID LAKE BUOY  0050   65 62  180/ 10/ 10 1013.2F   1
KENOSHA   LAKESH 0100   72     210/  6/  9 1012.5S
$$

TC  - TEMPERATURE IN CELSIUS
VSB - VISIBILITY IN STATUTE MILES
WCI - WIND CHILL INDEX
HX  - HEAT INDEX



USA.gov is the U.S. government's official web portal to all federal, state and local government web resources and services.